Date String (YYYY-MM-DD hh:mm:ss) UTC,Instrument flags,Ambient pressure (hPa),Sample flow (lpm),Bypass flow (lpm),Sample temperature (°C),Ambient temperature (°C),ASC tube jacket temperature (°C),LED temperature (°C),Box temperature (°C),Sample RH (%),Span deviation,Mass concentration (μg/m³),Mass concentration (μg/m³),Mass concentration (μg/m³)
DateTimeUTC,F1_M11,P_M11,Q1_M11,Q2_M11,T1_M11,T2_M11,T3_M11,T4_M11,T5_M11,U1_M11,ZSPAN_M11,X0_M11,X2_M11,X1_M11
2023-01-21 03:00:00,,0826.5,5.00,0.00,22.1,20.4,00.0,30.9,23.8,08.7,0000.0,0014.35,0010.14,0009.46
2023-01-21 03:01:00,,0826.5,5.00,0.00,22.1,20.4,00.0,30.9,23.8,08.6,0000.0,0013.99,0009.97,0009.30
2023-01-21 03:02:00,,0826.5,5.01,0.00,22.0,20.3,00.0,30.9,23.7,08.8,0000.0,0014.01,0009.92,0009.26
2023-01-21 03:03:00,,0826.5,5.01,0.00,22.0,20.2,00.0,30.9,23.6,08.9,0000.0,0013.91,0009.86,0009.23
2023-01-21 03:04:00,,0826.5,5.00,0.00,22.0,20.2,00.0,30.9,23.6,08.9,0000.0,0013.77,0009.80,0009.19
2023-01-21 03:05:00,,0826.5,5.00,0.00,22.0,20.9,00.0,30.8,23.8,08.9,0000.0,0013.96,0009.74,0009.17
2023-01-21 03:06:00,,0826.5,5.00,0.00,22.1,21.9,00.0,30.8,24.0,08.9,0000.0,0014.09,0009.79,0009.20
2023-01-21 03:07:00,,0826.5,5.00,0.00,22.2,22.6,00.0,30.8,24.2,08.9,0000.0,0014.60,0009.76,0009.20
2023-01-21 03:08:00,,0826.5,4.97,0.00,22.3,22.3,00.0,30.9,24.2,08.9,0000.7,0014.84,0009.80,0009.25
2023-01-21 03:09:00,,0826.5,5.01,0.00,22.3,21.8,00.0,30.9,24.2,08.9,0003.1,0015.29,0009.90,0009.32
2023-01-21 03:10:00,,0826.5,5.00,0.00,22.3,21.4,00.0,30.9,24.1,09.0,0002.8,0015.92,0009.97,0009.40
2023-01-21 03:11:00,,0826.5,5.00,0.00,22.2,21.1,00.0,30.9,24.0,09.0,0001.9,0016.51,0010.17,0009.58
2023-01-21 03:12:00,,0826.5,4.99,0.00,22.2,20.9,00.0,30.9,24.0,09.0,0001.4,0016.97,0010.40,0009.79
2023-01-21 03:13:00,,0826.5,5.00,0.00,22.2,20.8,00.0,30.9,24.0,09.1,0001.7,0017.39,0010.51,0009.91
2023-01-21 03:14:00,,0826.5,5.01,0.00,22.2,20.7,00.0,31.0,23.9,09.1,0001.9,0017.54,0010.64,0010.03
2023-01-21 03:15:00,,0826.5,5.00,0.00,22.2,20.6,00.0,31.0,23.9,09.1,0002.8,0017.68,0010.74,0010.12
2023-01-21 03:16:00,,0826.5,5.00,0.00,22.2,20.6,00.0,30.9,23.9,09.1,0002.4,0017.34,0010.83,0010.20
2023-01-21 03:17:00,,0826.5,5.00,0.00,22.2,20.6,00.0,30.9,23.9,09.1,0002.8,0018.14,0010.91,0010.27
2023-01-21 03:18:00,,0826.5,5.00,0.00,22.1,20.6,00.0,30.9,23.9,09.1,0002.4,0018.04,0011.02,0010.35
2023-01-21 03:19:00,,0826.5,5.00,0.00,22.1,20.5,00.0,30.9,23.9,09.1,0002.5,0017.78,0011.09,0010.39
2023-01-21 03:20:00,,0826.5,5.00,0.00,22.1,20.5,00.0,30.9,23.8,09.1,0001.9,0017.71,0011.12,0010.43
2023-01-21 03:21:00,,0826.5,4.99,0.00,22.1,20.5,00.0,30.9,23.8,09.1,0001.7,0017.73,0011.18,0010.45
2023-01-21 03:22:00,,0826.5,5.01,0.00,22.1,20.5,00.0,30.9,23.8,09.1,0002.5,0017.88,0011.21,0010.46
2023-01-21 03:23:00,,0826.5,5.00,0.00,22.1,20.5,00.0,30.9,23.8,09.1,0003.0,0017.76,0011.20,0010.45
2023-01-21 03:24:00,,0826.6,5.00,0.00,22.1,20.4,00.0,30.9,23.8,09.1,0002.4,0017.83,0011.26,0010.46
2023-01-21 03:25:00,,0826.5,4.99,0.00,22.1,20.4,00.0,30.9,23.7,09.2,0002.7,0018.50,0011.31,0010.46
2023-01-21 03:26:00,,0826.5,5.02,0.00,22.0,20.4,00.0,30.9,23.7,09.2,0002.8,0018.54,0011.35,0010.47
2023-01-21 03:27:00,,0826.5,5.00,0.00,22.0,20.4,00.0,30.9,23.7,09.3,0002.5,0018.63,0011.39,0010.48
2023-01-21 03:28:00,,0826.5,5.00,0.00,22.1,21.1,00.0,30.8,23.9,09.2,0002.8,0017.92,0011.41,0010.48
2023-01-21 03:29:00,,0826.5,5.00,0.00,22.2,22.1,00.0,30.8,24.1,09.1,0003.9,0017.73,0011.38,0010.45
2023-01-21 03:30:00,,0826.5,5.00,0.00,22.3,22.7,00.0,30.9,24.3,09.1,0004.4,0018.12,0011.40,0010.48
2023-01-21 03:31:00,,0826.5,4.99,0.00,22.3,22.4,00.0,30.9,24.3,09.1,0001.8,0018.52,0011.48,0010.54
2023-01-21 03:32:00,,0826.4,5.01,0.00,22.4,22.0,00.0,30.9,24.3,09.0,0000.0,0018.13,0011.52,0010.59
2023-01-21 03:33:00,,0826.5,4.99,0.00,22.4,21.6,00.0,31.0,24.2,09.0,0000.0,0017.95,0011.60,0010.66
2023-01-21 03:34:00,,0826.5,4.99,0.00,22.3,21.3,00.0,31.0,24.1,09.0,0000.0,0018.32,0011.70,0010.74
2023-01-21 03:35:00,,0826.5,5.00,0.00,22.3,21.1,00.0,31.0,24.1,09.0,0000.0,0018.04,0011.79,0010.83
2023-01-21 03:36:00,,0826.4,5.01,0.00,22.3,21.0,00.0,31.0,24.1,09.0,0000.8,0017.73,0011.87,0010.92
2023-01-21 03:37:00,,0826.4,5.01,0.00,22.3,21.0,00.0,31.0,24.1,09.0,0005.0,0017.68,0011.96,0011.00
2023-01-21 03:38:00,,0826.4,5.00,0.00,22.3,21.0,00.0,31.0,24.1,09.0,0005.2,0017.58,0011.97,0011.06
2023-01-21 03:39:00,,0826.4,5.00,0.00,22.3,20.9,00.0,31.0,24.1,09.0,0005.1,0017.43,0011.99,0011.12
2023-01-21 03:40:00,,0826.4,5.00,0.00,22.3,20.9,00.0,31.0,24.0,08.9,0004.8,0017.35,0012.01,0011.17
2023-01-21 03:41:00,,0826.4,4.99,0.00,22.3,20.9,00.0,31.0,24.0,08.9,0004.7,0017.23,0012.02,0011.16
2023-01-21 03:42:00,,0826.4,5.02,0.00,22.3,20.9,00.0,31.0,24.0,09.0,0004.6,0016.66,0011.94,0011.12
2023-01-21 03:43:00,,0826.4,5.01,0.00,22.3,20.9,00.0,31.0,24.0,09.0,0004.6,0016.52,0011.90,0011.10
2023-01-21 03:44:00,,0826.4,5.02,0.00,22.2,20.9,00.0,31.0,24.0,08.9,0004.6,0016.09,0011.81,0011.04
2023-01-21 03:45:00,,0826.4,4.99,0.00,22.2,20.9,00.0,31.0,24.0,08.9,0004.9,0016.18,0011.70,0010.94
2023-01-21 03:46:00,,0826.5,5.00,0.00,22.2,20.9,00.0,31.0,24.0,08.9,0004.4,0016.22,0011.57,0010.85
2023-01-21 03:47:00,,0826.5,5.00,0.00,22.2,20.8,00.0,31.0,24.0,08.9,0003.9,0016.23,0011.41,0010.75
2023-01-21 03:48:00,,0826.5,5.00,0.00,22.2,20.8,00.0,31.0,23.9,09.0,0000.0,0015.97,0011.27,0010.65
2023-01-21 03:49:00,,0826.4,4.97,0.00,22.2,20.9,00.0,31.0,23.9,08.9,0000.0,0016.37,0011.20,0010.55
2023-01-21 03:50:00,,0826.4,5.02,0.00,22.2,21.2,00.0,31.0,24.0,08.9,0000.0,0016.54,0011.14,0010.47
2023-01-21 03:51:00,,0826.4,5.00,0.00,22.3,22.0,00.0,31.0,24.2,08.9,0000.0,0016.55,0011.11,0010.43
2023-01-21 03:52:00,,0826.5,5.00,0.00,22.4,22.9,00.0,31.0,24.4,08.8,0001.7,0016.39,0011.06,0010.40
2023-01-21 03:53:00,,0826.5,4.99,0.00,22.5,22.8,00.0,31.1,24.5,08.8,0001.8,0016.31,0011.04,0010.38
2023-01-21 03:54:00,,0826.5,5.00,0.00,22.5,22.4,00.0,31.1,24.5,08.8,0004.5,0016.71,0010.98,0010.33
2023-01-21 03:55:00,,0826.5,5.01,0.00,22.5,21.9,00.0,31.1,24.4,08.7,0004.1,0016.83,0010.95,0010.29
2023-01-21 03:56:00,,0826.5,4.99,0.00,22.5,21.5,00.0,31.2,24.3,08.7,0004.1,0016.56,0010.97,0010.30
2023-01-21 03:57:00,,0826.5,5.00,0.00,22.5,21.3,00.0,31.2,24.3,08.8,0004.9,0016.16,0010.98,0010.29
2023-01-21 03:58:00,,0826.5,4.99,0.00,22.5,21.2,00.0,31.2,24.2,08.8,0004.4,0015.67,0010.93,0010.26
2023-01-21 03:59:00,,0826.5,5.00,0.00,22.5,21.1,00.0,31.2,24.2,08.8,0004.7,0015.60,0010.87,0010.22
